When you browse on this site, cookies collect data to enhance your experience and personalize the content and advertising you see.
Visit our Privacy Policy to learn more. By continuing to use the site, you agree to this use of cookies and data.
  • In Deutschland
  • Länderverzeichnis
  • Für 7 Tage
  • Wassertemperatur
  • Wetterkarte
  • Widgets
  • user-avatar
    Anmelden

    Stündliche Wetter Polotsk

    Heute, 30 Mai, Samstag

    Zeit Temperatur Niederschläge Wind Luftdruck Luftfeuchtigkeit
    00:00 +11°C° 0 mm 4 m/S 748 mmHg 82%
    01:00 +11°C° 0 mm 4 m/S 748 mmHg 82%
    02:00 +10°C° 0 mm 5 m/S 748 mmHg 83%
    03:00 +9°C° 0 mm 5 m/S 748 mmHg 81%
    04:00 +9°C° 0 mm 5 m/S 747 mmHg 79%
    05:00 +9°C° 0 mm 6 m/S 747 mmHg 77%
    06:00 +10°C° 0 mm 6 m/S 747 mmHg 75%
    07:00 +11°C° 0 mm 6 m/S 747 mmHg 73%
    08:00 +13°C° 0 mm 6 m/S 747 mmHg 71%
    09:00 +14°C° 0 mm 7 m/S 746 mmHg 69%
    10:00 +15°C° 0 mm 7 m/S 746 mmHg 68%
    11:00 +16°C° 0 mm 7 m/S 746 mmHg 66%
    12:00 +17°C° 0 mm 8 m/S 745 mmHg 65%
    13:00 +18°C° 0 mm 8 m/S 745 mmHg 64%
    14:00 +18°C° 0 mm 8 m/S 745 mmHg 63%
    15:00 +17°C° 0.1 mm 8 m/S 744 mmHg 67%
    16:00 +17°C° 0.1 mm 7 m/S 744 mmHg 71%
    17:00 +16°C° 0.1 mm 6 m/S 743 mmHg 75%
    18:00 +15°C° 0.4 mm 6 m/S 743 mmHg 78%
    19:00 +15°C° 0.4 mm 6 m/S 743 mmHg 81%
    20:00 +14°C° 0.4 mm 6 m/S 743 mmHg 84%
    21:00 +14°C° 0 mm 7 m/S 743 mmHg 82%
    22:00 +14°C° 0 mm 7 m/S 743 mmHg 79%
    23:00 +15°C° 0 mm 7 m/S 743 mmHg 76%

    Morgen, 31 Mai, Sonntag

    Zeit Temperatur Niederschläge Wind Luftdruck Luftfeuchtigkeit
    00:00 +13°C° 0 mm 8 m/S 743 mmHg 73%
    01:00 +13°C° 0 mm 8 m/S 743 mmHg 70%
    02:00 +13°C° 0 mm 8 m/S 744 mmHg 68%
    03:00 +12°C° 0.1 mm 8 m/S 744 mmHg 69%
    04:00 +11°C° 0.1 mm 8 m/S 744 mmHg 71%
    05:00 +11°C° 0.1 mm 8 m/S 744 mmHg 72%
    06:00 +11°C° 0.1 mm 8 m/S 744 mmHg 70%
    07:00 +12°C° 0.1 mm 8 m/S 745 mmHg 69%
    08:00 +12°C° 0.1 mm 8 m/S 745 mmHg 67%
    09:00 +15°C° 0 mm 8 m/S 745 mmHg 62%
    10:00 +16°C° 0 mm 8 m/S 746 mmHg 56%
    11:00 +17°C° 0 mm 8 m/S 746 mmHg 51%
    12:00 +17°C° 0 mm 8 m/S 746 mmHg 50%
    13:00 +18°C° 0 mm 8 m/S 746 mmHg 49%
    14:00 +18°C° 0 mm 8 m/S 747 mmHg 48%
    15:00 +17°C° 0 mm 7 m/S 747 mmHg 50%
    16:00 +17°C° 0 mm 6 m/S 747 mmHg 52%
    17:00 +16°C° 0 mm 6 m/S 747 mmHg 54%
    18:00 +15°C° 0 mm 6 m/S 748 mmHg 55%
    19:00 +14°C° 0 mm 5 m/S 748 mmHg 55%
    20:00 +12°C° 0 mm 5 m/S 748 mmHg 56%
    21:00 +10°C° 0 mm 5 m/S 749 mmHg 57%
    22:00 +9°C° 0 mm 5 m/S 749 mmHg 57%
    23:00 +8°C° 0 mm 5 m/S 750 mmHg 58%

    übermorgen, 1 Juni, Montag

    Zeit Temperatur Niederschläge Wind Luftdruck Luftfeuchtigkeit
    00:00 +8°C° 0 mm 5 m/S 750 mmHg 61%
    01:00 +7°C° 0 mm 5 m/S 750 mmHg 63%
    02:00 +6°C° 0 mm 4 m/S 750 mmHg 66%
    03:00 +6°C° 0 mm 4 m/S 750 mmHg 68%
    04:00 +5°C° 0 mm 4 m/S 750 mmHg 69%
    05:00 +5°C° 0 mm 4 m/S 750 mmHg 71%
    06:00 +6°C° 0 mm 5 m/S 750 mmHg 66%
    07:00 +8°C° 0 mm 5 m/S 751 mmHg 61%
    08:00 +9°C° 0 mm 6 m/S 751 mmHg 57%
    09:00 +10°C° 0 mm 6 m/S 750 mmHg 53%
    10:00 +11°C° 0 mm 6 m/S 750 mmHg 50%
    11:00 +13°C° 0 mm 6 m/S 750 mmHg 47%
    12:00 +14°C° 0 mm 6 m/S 750 mmHg 45%
    13:00 +14°C° 0 mm 6 m/S 749 mmHg 43%
    14:00 +15°C° 0 mm 6 m/S 749 mmHg 41%
    15:00 +15°C° 0 mm 6 m/S 749 mmHg 44%
    16:00 +14°C° 0 mm 6 m/S 749 mmHg 47%
    17:00 +14°C° 0 mm 6 m/S 749 mmHg 50%
    18:00 +12°C° 0.1 mm 5 m/S 749 mmHg 57%
    19:00 +11°C° 0.1 mm 4 m/S 749 mmHg 63%
    20:00 +8°C° 0.1 mm 4 m/S 749 mmHg 70%
    21:00 +7°C° 0 mm 4 m/S 749 mmHg 71%
    22:00 +7°C° 0 mm 4 m/S 749 mmHg 71%
    23:00 +6°C° 0 mm 4 m/S 749 mmHg 72%

    2 Juni, Dienstag

    Zeit Temperatur Niederschläge Wind Luftdruck Luftfeuchtigkeit
    00:00 +6°C° 0 mm 4 m/S 749 mmHg 74%
    01:00 +5°C° 0 mm 4 m/S 749 mmHg 76%
    02:00 +5°C° 0 mm 4 m/S 749 mmHg 78%
    03:00 +5°C° 0 mm 4 m/S 749 mmHg 79%
    04:00 +5°C° 0 mm 5 m/S 748 mmHg 79%
    05:00 +6°C° 0 mm 5 m/S 748 mmHg 79%
    06:00 +7°C° 0 mm 5 m/S 748 mmHg 74%
    07:00 +9°C° 0 mm 6 m/S 748 mmHg 68%
    08:00 +11°C° 0 mm 6 m/S 748 mmHg 63%
    09:00 +14°C° 0 mm 7 m/S 748 mmHg 58%
    10:00 +15°C° 0 mm 7 m/S 748 mmHg 53%
    11:00 +16°C° 0 mm 7 m/S 748 mmHg 48%
    12:00 +17°C° 0 mm 7 m/S 748 mmHg 47%
    13:00 +17°C° 0 mm 6 m/S 748 mmHg 46%
    14:00 +19°C° 0 mm 6 m/S 747 mmHg 44%
    15:00 +19°C° 0 mm 6 m/S 747 mmHg 46%
    16:00 +19°C° 0 mm 5 m/S 747 mmHg 48%
    17:00 +17°C° 0 mm 5 m/S 747 mmHg 50%
    18:00 +16°C° 0 mm 5 m/S 747 mmHg 55%
    19:00 +14°C° 0 mm 4 m/S 746 mmHg 61%
    20:00 +13°C° 0 mm 3 m/S 746 mmHg 66%
    21:00 +12°C° 0 mm 3 m/S 746 mmHg 67%
    22:00 +11°C° 0 mm 3 m/S 746 mmHg 68%
    23:00 +10°C° 0 mm 3 m/S 746 mmHg 70%

    3 Juni, Mittwoch

    Zeit Temperatur Niederschläge Wind Luftdruck Luftfeuchtigkeit
    00:00 +9°C° 0 mm 3 m/S 746 mmHg 72%
    01:00 +9°C° 0 mm 3 m/S 746 mmHg 75%
    02:00 +8°C° 0 mm 3 m/S 745 mmHg 77%
    03:00 +7°C° 0 mm 4 m/S 745 mmHg 79%
    04:00 +8°C° 0 mm 4 m/S 745 mmHg 81%
    05:00 +8°C° 0 mm 4 m/S 745 mmHg 83%
    06:00 +8°C° 0.3 mm 4 m/S 745 mmHg 86%
    07:00 +8°C° 0.3 mm 4 m/S 744 mmHg 88%
    08:00 +8°C° 0.3 mm 5 m/S 744 mmHg 91%
    09:00 +8°C° 0.4 mm 5 m/S 744 mmHg 92%
    10:00 +8°C° 0.4 mm 5 m/S 745 mmHg 92%
    11:00 +9°C° 0.4 mm 5 m/S 745 mmHg 93%
    12:00 +9°C° 0.1 mm 5 m/S 745 mmHg 91%
    13:00 +10°C° 0.1 mm 5 m/S 745 mmHg 90%
    14:00 +10°C° 0.1 mm 5 m/S 745 mmHg 89%
    15:00 +12°C° 0.1 mm 5 m/S 745 mmHg 85%
    16:00 +13°C° 0.1 mm 5 m/S 745 mmHg 82%
    17:00 +14°C° 0.1 mm 5 m/S 745 mmHg 78%
    18:00 +13°C° 0.1 mm 5 m/S 745 mmHg 81%
    19:00 +12°C° 0.1 mm 4 m/S 745 mmHg 85%
    20:00 +12°C° 0.1 mm 3 m/S 745 mmHg 88%
    21:00 +11°C° 0.1 mm 3 m/S 745 mmHg 91%
    22:00 +10°C° 0.1 mm 3 m/S 745 mmHg 94%
    23:00 +9°C° 0.1 mm 3 m/S 745 mmHg 97%

    4 Juni, Donnerstag

    Zeit Temperatur Niederschläge Wind Luftdruck Luftfeuchtigkeit
    00:00 +9°C° 0 mm 3 m/S 745 mmHg 97%
    01:00 +9°C° 0 mm 3 m/S 745 mmHg 98%
    02:00 +9°C° 0 mm 2 m/S 745 mmHg 98%
    03:00 +9°C° 0 mm 2 m/S 745 mmHg 98%
    04:00 +9°C° 0 mm 2 m/S 745 mmHg 98%
    05:00 +9°C° 0 mm 2 m/S 745 mmHg 98%
    06:00 +10°C° 0 mm 2 m/S 745 mmHg 94%
    07:00 +11°C° 0 mm 3 m/S 745 mmHg 91%
    08:00 +13°C° 0 mm 3 m/S 744 mmHg 88%
    09:00 +13°C° 0.5 mm 3 m/S 744 mmHg 89%
    10:00 +13°C° 0.5 mm 3 m/S 744 mmHg 91%
    11:00 +13°C° 0.5 mm 3 m/S 744 mmHg 92%
    12:00 +13°C° 0.1 mm 3 m/S 744 mmHg 89%
    13:00 +14°C° 0.1 mm 3 m/S 744 mmHg 85%
    14:00 +14°C° 0.1 mm 4 m/S 744 mmHg 82%
    15:00 +16°C° 0.1 mm 3 m/S 744 mmHg 80%
    16:00 +16°C° 0.1 mm 3 m/S 743 mmHg 78%
    17:00 +17°C° 0.1 mm 3 m/S 743 mmHg 76%
    18:00 +16°C° 0 mm 3 m/S 743 mmHg 81%
    19:00 +15°C° 0 mm 2 m/S 743 mmHg 86%
    20:00 +14°C° 0 mm 2 m/S 742 mmHg 91%
    21:00 +13°C° 0 mm 2 m/S 742 mmHg 93%
    22:00 +13°C° 0 mm 2 m/S 742 mmHg 95%
    23:00 +12°C° 0 mm 2 m/S 742 mmHg 97%
    Mehr zeigen